Regional Weather Roundup
Issued by NWS

Home | Current Version | Previous Version | Text Only | Print | Product List | Glossary Off
Versions: 1 2 3 4 5 6 7 8 9 10 11 12 13 14 15 16 17 18 19 20 21 22 23 24 25 26 27 28 29 30 31 32 33 34 35 36 37 38 39 40 41 42 43 44 45 46 47 48 49 50

000
ASUS45 KBOU 162310
RWRCO

WEATHER ROUNDUP FOR COLORADO
NATIONAL WEATHER SERVICE DENVER/BOULDER CO
400 PM MST SAT DEC 16 2017

NOTE: "FAIR" INDICATES FEW OR NO CLOUDS BELOW 12000 FEET WITH NO
SIGNIFICANT WEATHER AND/OR OBSTRUCTIONS TO VISIBILITY.

COZ001>005-013-030-031-170000-
...NORTHWEST COLORADO...

CITY           SKY/WX    TMP DP  RH WIND       PRES   REMARKS
CRAIG          FAIR      28  17  63 CALM      29.76R
HAYDEN         FAIR      32  17  54 CALM      29.76S
MEEKER         FAIR      41   9  26 W3        29.73S
RABBIT EARS PA CLOUDY    27  -2  28 W8        29.79S WCI  18
STEAMBOAT SPGS FAIR      32  16  52 CALM      29.74F
WALDEN         CLOUDY    30  14  51 W5        29.77R WCI  25
$$

COZ006>008-011-170000-
...WEST CENTRAL VALLEYS...

CITY           SKY/WX    TMP DP  RH WIND       PRES   REMARKS
GRAND JUNCTION FAIR      39  11  31 W3        29.76S
MONTROSE       FAIR      40   8  26 N6        29.77R
EAGLE          MOCLDY    27  13  55 CALM      29.81S
RIFLE          FAIR      38  10  31 CALM      29.75S
DELTA          FAIR      44   7  22 CALM      29.75S
NUCLA          FAIR      43  -4  14 CALM      29.79S
$$

COZ017>023-064>068-170000-
...SOUTHWEST COLORADO...

CITY           SKY/WX    TMP DP  RH WIND       PRES   REMARKS
DURANGO        FAIR      45  10  24 SW7       29.76R
CORTEZ         FAIR      42  11  28 SW6       29.77S
PAGOSA SPRINGS FAIR      46  -3  13 CALM      29.78R
TELLURIDE      MOCLDY    38  -7  14 W7        29.81R
WOLF CREEK PAS FAIR      27   3  36 SW15      29.90R WCI  15
$$

COZ009-010-012-014-032>034-037-058>063-170000-
...CENTRAL COLORADO...

CITY           SKY/WX    TMP DP  RH WIND       PRES   REMARKS
ASPEN          FAIR      35  15  44 S3        29.75S
BUENA VISTA    FAIR      42  13  31 S3        29.76R
COPPER MTN     NOT AVBL
BERTHOUD PASS  FAIR      21   9  58 SE15G23   29.86S WCI   8
COTTONWOOD PAS FAIR      41   3  20 CALM      29.81R
GUNNISON       FAIR      29   8  41 NE3       29.80S
KREMMLING      FAIR      28  14  54 CALM      29.79S
LEADVILLE      FAIR      33   4  29 CALM      29.77S
MONARCH PASS   MOCLDY    28   3  34 E16       29.94F WCI  17
SALIDA         FAIR      47   7  19 SE5       29.82R
SUNLIGHT       CLOUDY    28   0  29 S7        29.84S WCI  21
WILKERSON PASS FAIR      27   3  36 SE6       29.89R WCI  20
$$

COZ069>075-170000-
...SAN LUIS VALLEY/SANGRE DE CRISTO MOUNTAINS...

CITY           SKY/WX    TMP DP  RH WIND       PRES   REMARKS
ALAMOSA        FAIR      39  11  31 W3        29.73R
DEL NORTE      FAIR      37  11  34 E5        29.75R
LA VETA PASS   FAIR      30   5  34 NE25G32     N/A  WCI  16
SAGUACHE       FAIR      39   3  22 CALM      29.75S
$$

COZ035-036-038>040-170000-
...NORTHERN COLORADO FRONT RANGE...

CITY           SKY/WX    TMP DP  RH WIND       PRES   REMARKS
DENVER INTL AP MOCLDY    44  13  28 E9        29.81R
DMNS CITY PARK NOT AVBL
AURORA         NOT AVBL
FRONT RANGE AP MOCLDY    45  16  31 NE8       29.82R
ERIE MUNI ARPT FAIR      42  12  29 N5        29.86R
BOULDER MUN AP FAIR      43  16  33 N3        29.82R
CENTENNIAL     MOCLDY    45  14  28 CALM      29.80R
BROOMFIELD     MOCLDY    45  12  26 N8        29.81R
FORT COLLINS   FAIR      45  16  31 E14       29.82R
LONGMONT       FAIR      45  16  30 N5        29.83R
$$

COZ041-046-047-076>085-087-088-170000-
...PIKES PEAK/PALMER DIVIDE AND SOUTHERN FOOTHILLS...

CITY           SKY/WX    TMP DP  RH WIND       PRES   REMARKS
COLO. SPRINGS  MOCLDY    46   9  22 N13       29.79R
A. F. ACADEMY  FAIR      43   8  23 N10       29.79R
SCHRIEVER AFB  FAIR      43   8  23 NE14      29.79R
CHEYENNE MTN   NOT AVBL
ELLICOTT         N/A    N/A N/A N/A NE13      29.77R
FALCON         FAIR      41   7  24 N10       29.81R
FORT CARSON    FAIR      48   9  20 NE13      29.77R
LIMON          FAIR      43  15  32 NE14      29.79R
MONUMENT HILL  FAIR      36  12  38 MISG      29.83R
CANON CITY     FAIR      54   7  15 E13       29.75R
WALSENBURG     FAIR      50   5  16 NE13      29.76R
TRINIDAD       FAIR      51  14  22 N9        29.71S
$$

COZ042>045-048>051-090-091-170000-
...NORTHEAST COLORADO...

CITY           SKY/WX    TMP DP  RH WIND       PRES   REMARKS
GREELEY ARPT   FAIR      45  19  35 E12       29.83R
AKRON          FAIR      42  24  49 NE15      29.81R
BURLINGTON     FAIR      47  19  33 NE16G26   29.78R
WRAY           FAIR      45  28  53 E14       29.82R
YUMA           FAIR      41  27  56 NE10      29.81R
STERLING       FAIR      43  28  56 E10G18    29.84R
HOLYOKE        FAIR      41  28  60 NE15      29.85R
FORT MORGAN    FAIR      42  22  44 NE13      29.84R
$$

COZ086-089-092>099-170000-
...SOUTHEAST COLORADO...

CITY           SKY/WX    TMP DP  RH WIND       PRES   REMARKS
PUEBLO         FAIR      55   4  12 E13       29.73R
LA JUNTA       FAIR      56  10  16 NE15      29.69R
LAMAR          FAIR      55  14  19 E10       29.66S
SPRINGFIELD      N/A     51  15  23 S12       29.66R
$$



USA.gov is the U.S. government's official web portal to all federal, state and local government web resources and services.